Location: Jesenik
(50.2330°N, 17.2000°E)
Time: 11:48:09
(UTC+02:00)

ISS - Pass Details

Date: 01 April 2019
Orbit: 408 x 410 km, 51.6° (Epoch: 24 April)

Event Time Altitude Azimuth Distance (km) Brightness Sun altitude
Rises 20:10:07 0° 280° (W) 2,338 2.3 -8.2°
Reaches altitude 10° 20:12:13 10° 283° (WNW) 1,476 0.7 -8.5°
Maximum altitude 20:15:31 72° 7° (N) 435 -3.7 -9.0°
Enters shadow 20:18:23 13° 92° (E) 1,301 -1.9 -9.5°
